Location: Ammerl�gen
(47.2167°N, 9.6000°E)
Time: 09:49:07
(UTC+00:00)

Cosmos 407 Rocket - Pass Details

Date: 21 April 2021
Orbit: 743 x 787 km, 74.0° (Epoch: 06 May)

Event Time Altitude Azimuth Distance (km) Brightness Sun altitude
Rises 20:37:49 0° 218° (SW) 3,175 6.6 -20.5°
Reaches altitude 10° 20:40:14 10° 224° (SW) 2,259 5.9 -20.7°
Maximum altitude 20:45:10 47° 298° (WNW) 988 4.4 -21.3°
Drops below altitude 10° 20:50:11 10° 13° (NNE) 2,295 6.4 -21.8°
Sets 20:52:40 0° 19° (NNE) 3,232 7.2 -22.1°
